Location: Ahausen
(50.4985°N, 8.2722°E)
Time: 03:08:50
(UTC+00:00)

NOSS 2-2 (E) - Pass Details

Date: 18 September 2020
Orbit: 469 x 1737 km, 63.3° (Epoch: 19 October)

Event Time Altitude Azimuth Distance (km) Brightness Sun altitude
Rises 19:12:24 0° 222° (SW) 2,500 6.9 -16.1°
Reaches altitude 10° 19:14:24 10° 223° (SW) 1,641 6.0 -16.4°
Maximum altitude 19:17:57 90° 315° (NW) 517 3.1 -16.9°
Drops below altitude 10° 19:22:06 10° 44° (NE) 1,922 5.9 -17.5°
Sets 19:24:37 0° 44° (NE) 2,982 6.9 -17.9°
